Tracking 18980 objects as of 18-Feb-2018
HD Live streaming from Space Station
objects crossing your sky now

NIMBUS 2 DEB

Track NIMBUS 2 DEB now!
10-day predictions


NORAD ID: 28205
Int'l Code: 1966-040T
Perigee: 1,066.0 km
Apogee: 1,136.4 km
Inclination: 100.4 °
Period: 107.1 minutes
Semi major axis: 7472 km
RCS: 0.0168 m2 (small)
Launch date: May 15, 1966
Source: United States (US)
Launch site: AIR FORCE WESTERN TEST RANGE (AFWTR)

Note: This is SATELLITE DEBRIS
aabbcc
Your satellite tracking list
Your tracking list is empty




NASA's NSSDC Master Catalog

Two Line Element Set (TLE):
1 28205U 66040T   18048.89850939  .00001053  00000-0  18847-2 0  9994
2 28205 100.3665 143.3373 0047142  88.2401 339.4938 13.44096907682979
Source of the keplerian elements: AFSPC